Location: De Har
(53.3413°N, 6.6858°E)
Time: 20:57:47
(UTC+00:00)

Envisat - Pass Details

Date: 22 April 2026
Orbit: 761 x 762 km, 98.4° (Epoch: 21 May)

Event Time Altitude Azimuth Distance (km) Brightness Sun altitude
Rises 01:50:07 0° 19° (NNE) 3,239 7.7 -18.2°
Reaches altitude 10° 01:52:32 10° 25° (NNE) 2,308 6.7 -17.9°
Maximum altitude 01:57:25 45° 99° (E) 1,028 3.8 -17.5°
Enters shadow 02:01:24 15° 168° (SSE) 1,975 4.8 -17.1°
